Time,TemperatureF,DewpointF,PressureIn,WindDirection,WindDirectionDegrees,WindSpeedMPH,WindSpeedGustMPH,Humidity,HourlyPrecipIn,Conditions,Clouds,dailyrainin,SoftwareType,DateUTC
2013-11-24 00:00:00,20.7,15.5,30.38,SSE,165,2.0,2.0,80,0.00,,---,0.00,VWS V14.01,2013-11-24 05:00:00,
2013-11-24 00:01:00,20.6,15.4,30.38,West,270,2.0,4.0,80,0.00,,---,0.00,VWS V14.01,2013-11-24 05:01:00,
2013-11-24 00:06:00,20.6,15.4,30.38,WSW,241,0.0,5.0,80,0.00,,---,0.00,VWS V14.01,2013-11-24 05:06:00,
2013-11-24 00:11:00,20.5,15.6,30.38,WNW,286,3.0,6.0,81,0.00,,---,0.00,VWS V14.01,2013-11-24 05:11:00,
2013-11-24 00:16:00,20.4,15.5,30.38,SW,228,0.0,7.0,81,0.00,,---,0.00,VWS V14.01,2013-11-24 05:16:00,
2013-11-24 00:21:00,20.4,15.2,30.38,WNW,296,2.0,4.0,80,0.00,,---,0.00,VWS V14.01,2013-11-24 05:21:00,
2013-11-24 00:26:00,20.3,15.4,30.38,West,275,0.0,6.0,81,0.00,,---,0.00,VWS V14.01,2013-11-24 05:26:00,
2013-11-24 00:31:00,20.2,15.0,30.39,WNW,296,0.0,3.0,80,0.00,,---,0.00,VWS V14.01,2013-11-24 05:31:00,
2013-11-24 00:37:00,20.2,15.0,30.39,West,259,0.0,3.0,80,0.00,,---,0.00,VWS V14.01,2013-11-24 05:37:00,
2013-11-24 00:42:00,20.0,14.8,30.39,NNW,331,4.0,7.0,80,0.00,,---,0.00,VWS V14.01,2013-11-24 05:42:00,
2013-11-24 00:47:00,19.8,14.6,30.39,SW,231,1.0,4.0,80,0.00,,---,0.00,VWS V14.01,2013-11-24 05:47:00,
2013-11-24 00:52:00,19.7,14.5,30.39,West,279,0.0,2.0,80,0.00,,---,0.00,VWS V14.01,2013-11-24 05:52:00,
2013-11-24 00:57:00,19.6,14.4,30.39,WNW,288,0.0,5.0,80,0.00,,---,0.00,VWS V14.01,2013-11-24 05:57:00,
2013-11-24 01:02:00,19.5,14.6,30.39,WSW,243,0.0,2.0,81,0.00,,---,0.00,VWS V14.01,2013-11-24 06:02:00,
2013-11-24 01:07:00,19.4,14.5,30.39,WNW,288,1.0,6.0,81,0.00,,---,0.00,VWS V14.01,2013-11-24 06:07:00,
2013-11-24 01:12:00,19.2,14.3,30.39,WNW,288,0.0,1.0,81,0.00,,---,0.00,VWS V14.01,2013-11-24 06:12:00,
2013-11-24 01:17:00,19.1,14.2,30.39,WNW,293,1.0,2.0,81,0.00,,---,0.00,VWS V14.01,2013-11-24 06:17:00,
2013-11-24 01:22:00,19.0,14.1,30.39,WNW,293,0.0,1.0,81,0.00,,---,0.00,VWS V14.01,2013-11-24 06:22:00,
2013-11-24 01:27:00,18.9,14.0,30.39,WNW,293,0.0,1.0,81,0.00,,---,0.00,VWS V14.01,2013-11-24 06:27:00,
2013-11-24 01:32:00,18.9,14.0,30.39,WNW,288,0.0,6.0,81,0.00,,---,0.00,VWS V14.01,2013-11-24 06:32:00,
2013-11-24 01:37:00,18.9,14.0,30.40,West,260,0.0,3.0,81,0.00,,---,0.00,VWS V14.01,2013-11-24 06:37:00,
2013-11-24 01:42:00,18.9,14.0,30.39,SW,223,0.0,3.0,81,0.00,,---,0.00,VWS V14.01,2013-11-24 06:42:00,
2013-11-24 01:47:00,19.0,14.1,30.40,WNW,287,1.0,6.0,81,0.00,,---,0.00,VWS V14.01,2013-11-24 06:47:00,
2013-11-24 01:52:00,19.0,14.1,30.40,SSW,205,0.0,7.0,81,0.00,,---,0.00,VWS V14.01,2013-11-24 06:52:00,
2013-11-24 01:57:00,19.1,14.2,30.40,West,279,0.0,7.0,81,0.00,,---,0.00,VWS V14.01,2013-11-24 06:57:00,
2013-11-24 02:02:00,19.1,14.2,30.40,WNW,296,4.0,10.0,81,0.00,,---,0.00,VWS V14.01,2013-11-24 07:02:00,
2013-11-24 02:07:00,19.1,14.2,30.40,WSW,250,0.0,4.0,81,0.00,,---,0.00,VWS V14.01,2013-11-24 07:07:00,
2013-11-24 02:12:00,19.1,14.5,30.40,WSW,254,9.0,10.0,82,0.00,,---,0.00,VWS V14.01,2013-11-24 07:12:00,
2013-11-24 02:17:00,19.1,14.2,30.41,West,270,0.0,12.0,81,0.00,,---,0.00,VWS V14.01,2013-11-24 07:17:00,
2013-11-24 02:22:00,19.0,14.1,30.41,SW,231,1.0,5.0,81,0.00,,---,0.00,VWS V14.01,2013-11-24 07:22:00,
2013-11-24 02:27:00,18.9,14.0,30.41,West,272,0.0,4.0,81,0.00,,---,0.00,VWS V14.01,2013-11-24 07:27:00,
2013-11-24 02:32:00,18.8,13.9,30.41,West,264,3.0,6.0,81,0.00,,---,0.00,VWS V14.01,2013-11-24 07:32:00,
2013-11-24 02:37:00,18.7,13.6,30.42,WNW,291,1.0,2.0,80,0.00,,---,0.00,VWS V14.01,2013-11-24 07:37:00,
2013-11-24 02:42:00,18.6,13.5,30.42,WSW,244,0.0,3.0,80,0.00,,---,0.00,VWS V14.01,2013-11-24 07:42:00,
2013-11-24 02:47:00,18.6,13.5,30.42,SSW,208,2.0,5.0,80,0.00,,---,0.00,VWS V14.01,2013-11-24 07:47:00,
2013-11-24 02:52:00,18.5,13.4,30.42,SSW,198,0.0,7.0,80,0.00,,---,0.00,VWS V14.01,2013-11-24 07:52:00,
2013-11-24 02:57:00,18.4,13.3,30.42,West,281,0.0,2.0,80,0.00,,---,0.00,VWS V14.01,2013-11-24 07:57:00,
2013-11-24 03:02:00,18.3,13.2,30.42,West,281,0.0,11.0,80,0.00,,---,0.00,VWS V14.01,2013-11-24 08:02:00,
2013-11-24 03:07:00,18.2,13.1,30.42,West,271,0.0,9.0,80,0.00,,---,0.00,VWS V14.01,2013-11-24 08:07:00,
2013-11-24 03:12:00,18.2,13.1,30.42,WSW,248,0.0,6.0,80,0.00,,---,0.00,VWS V14.01,2013-11-24 08:12:00,
2013-11-24 03:17:00,18.1,13.0,30.42,WNW,284,0.0,4.0,80,0.00,,---,0.00,VWS V14.01,2013-11-24 08:17:00,
2013-11-24 03:22:00,18.0,12.6,30.41,WSW,240,1.0,6.0,79,0.00,,---,0.00,VWS V14.01,2013-11-24 08:22:00,
2013-11-24 03:27:00,18.0,12.6,30.42,West,281,0.0,4.0,79,0.00,,---,0.00,VWS V14.01,2013-11-24 08:27:00,
2013-11-24 03:32:00,17.9,12.5,30.42,WSW,240,0.0,4.0,79,0.00,,---,0.00,VWS V14.01,2013-11-24 08:32:00,
2013-11-24 03:37:00,17.9,12.5,30.42,West,269,0.0,6.0,79,0.00,,---,0.00,VWS V14.01,2013-11-24 08:37:00,
2013-11-24 03:42:00,17.8,12.4,30.42,NW,310,0.0,3.0,79,0.00,,---,0.00,VWS V14.01,2013-11-24 08:42:00,
2013-11-24 03:47:00,17.7,12.3,30.42,WNW,292,0.0,2.0,79,0.00,,---,0.00,VWS V14.01,2013-11-24 08:47:00,
2013-11-24 03:52:00,17.7,12.3,30.42,SW,220,3.0,8.0,79,0.00,,---,0.00,VWS V14.01,2013-11-24 08:52:00,
2013-11-24 03:57:00,17.7,12.0,30.42,WSW,251,0.0,5.0,78,0.00,,---,0.00,VWS V14.01,2013-11-24 08:57:00,
2013-11-24 04:02:00,17.7,12.0,30.42,WNW,294,0.0,3.0,78,0.00,,---,0.00,VWS V14.01,2013-11-24 09:02:00,
2013-11-24 04:07:00,17.6,11.9,30.43,WNW,286,1.0,5.0,78,0.00,,---,0.00,VWS V14.01,2013-11-24 09:07:00,
2013-11-24 04:12:00,17.6,11.9,30.43,West,269,0.0,4.0,78,0.00,,---,0.00,VWS V14.01,2013-11-24 09:12:00,
2013-11-24 04:17:00,17.6,11.9,30.43,West,261,4.0,6.0,78,0.00,,---,0.00,VWS V14.01,2013-11-24 09:17:00,
2013-11-24 04:22:00,17.6,11.9,30.43,WSW,244,4.0,4.0,78,0.00,,---,0.00,VWS V14.01,2013-11-24 09:22:00,
2013-11-24 04:27:00,17.6,11.6,30.43,WSW,254,0.0,2.0,77,0.00,,---,0.00,VWS V14.01,2013-11-24 09:27:00,
2013-11-24 04:32:00,17.7,11.7,30.43,East,93,0.0,5.0,77,0.00,,---,0.00,VWS V14.01,2013-11-24 09:32:00,
2013-11-24 04:37:00,17.7,11.7,30.43,WNW,290,3.0,7.0,77,0.00,,---,0.00,VWS V14.01,2013-11-24 09:37:00,
2013-11-24 04:42:00,17.6,11.6,30.43,WNW,300,0.0,7.0,77,0.00,,---,0.00,VWS V14.01,2013-11-24 09:42:00,
2013-11-24 04:47:00,17.6,11.6,30.43,West,266,0.0,4.0,77,0.00,,---,0.00,VWS V14.01,2013-11-24 09:47:00,
2013-11-24 04:52:00,17.7,11.7,30.43,West,277,6.0,7.0,77,0.00,,---,0.00,VWS V14.01,2013-11-24 09:52:00,
2013-11-24 04:57:00,17.7,11.7,30.44,WSW,250,0.0,7.0,77,0.00,,---,0.00,VWS V14.01,2013-11-24 09:57:00,
2013-11-24 05:02:00,17.7,11.7,30.44,WSW,250,2.0,11.0,77,0.00,,---,0.00,VWS V14.01,2013-11-24 10:02:00,
2013-11-24 05:07:00,17.8,11.5,30.44,West,275,4.0,7.0,76,0.00,,---,0.00,VWS V14.01,2013-11-24 10:07:00,
2013-11-24 05:12:00,17.9,11.6,30.44,West,261,4.0,12.0,76,0.00,,---,0.00,VWS V14.01,2013-11-24 10:12:00,
2013-11-24 05:17:00,17.9,11.6,30.44,West,265,1.0,7.0,76,0.00,,---,0.00,VWS V14.01,2013-11-24 10:17:00,
2013-11-24 05:22:00,17.9,11.6,30.44,SW,221,1.0,6.0,76,0.00,,---,0.00,VWS V14.01,2013-11-24 10:22:00,
2013-11-24 05:27:00,17.9,11.6,30.44,SSW,207,0.0,4.0,76,0.00,,---,0.00,VWS V14.01,2013-11-24 10:27:00,
2013-11-24 05:32:00,17.7,11.4,30.44,West,277,1.0,3.0,76,0.00,,---,0.00,VWS V14.01,2013-11-24 10:32:00,
2013-11-24 05:37:00,17.6,11.0,30.45,SW,227,1.0,4.0,75,0.00,,---,0.00,VWS V14.01,2013-11-24 10:37:00,
2013-11-24 05:42:00,17.5,10.9,30.45,South,191,0.0,6.0,75,0.00,,---,0.00,VWS V14.01,2013-11-24 10:42:00,
2013-11-24 05:47:00,17.5,10.9,30.45,West,261,0.0,6.0,75,0.00,,---,0.00,VWS V14.01,2013-11-24 10:47:00,
2013-11-24 05:52:00,17.5,10.9,30.45,SW,217,0.0,3.0,75,0.00,,---,0.00,VWS V14.01,2013-11-24 10:52:00,
2013-11-24 05:57:00,17.4,11.1,30.46,SW,235,1.0,2.0,76,0.00,,---,0.00,VWS V14.01,2013-11-24 10:57:00,
2013-11-24 06:03:00,17.3,11.1,30.45,West,267,0.0,4.0,76,0.00,,---,0.00,VWS V14.01,2013-11-24 11:03:00,
2013-11-24 06:08:00,17.3,11.1,30.45,West,277,0.0,10.0,76,0.00,,---,0.00,VWS V14.01,2013-11-24 11:08:00,
2013-11-24 06:13:00,17.3,11.1,30.46,NW,317,0.0,2.0,76,0.00,,---,0.00,VWS V14.01,2013-11-24 11:13:00,
2013-11-24 06:18:00,17.3,11.1,30.46,WSW,253,0.0,3.0,76,0.00,,---,0.00,VWS V14.01,2013-11-24 11:18:00,
2013-11-24 06:23:00,17.3,11.1,30.46,WNW,299,0.0,6.0,76,0.00,,---,0.00,VWS V14.01,2013-11-24 11:23:00,
2013-11-24 06:28:00,17.3,11.1,30.47,West,260,0.0,2.0,76,0.00,,---,0.00,VWS V14.01,2013-11-24 11:28:00,
2013-11-24 06:33:00,17.4,11.1,30.47,West,263,0.0,2.0,76,0.00,,---,0.00,VWS V14.01,2013-11-24 11:33:00,
2013-11-24 06:38:00,17.4,11.1,30.47,SSW,192,2.0,13.0,76,0.00,,---,0.00,VWS V14.01,2013-11-24 11:38:00,
2013-11-24 06:43:00,17.5,11.2,30.48,West,269,0.0,6.0,76,0.00,,---,0.00,VWS V14.01,2013-11-24 11:43:00,
2013-11-24 06:48:00,17.5,11.2,30.47,WNW,292,0.0,6.0,76,0.00,,---,0.00,VWS V14.01,2013-11-24 11:48:00,
2013-11-24 06:53:00,17.6,11.3,30.48,WSW,240,0.0,5.0,76,0.00,,---,0.00,VWS V14.01,2013-11-24 11:53:00,
2013-11-24 06:58:00,17.6,11.3,30.48,WSW,256,0.0,4.0,76,0.00,,---,0.00,VWS V14.01,2013-11-24 11:58:00,
2013-11-24 07:03:00,17.6,11.3,30.48,WNW,291,1.0,1.0,76,0.00,,---,0.00,VWS V14.01,2013-11-24 12:03:00,
2013-11-24 07:08:00,17.7,11.4,30.48,SW,220,0.0,5.0,76,0.00,,---,0.00,VWS V14.01,2013-11-24 12:08:00,
2013-11-24 07:13:00,17.7,11.4,30.48,WNW,296,0.0,2.0,76,0.00,,---,0.00,VWS V14.01,2013-11-24 12:13:00,
2013-11-24 07:17:00,17.8,11.5,30.49,West,280,0.0,3.0,76,0.00,,---,0.00,VWS V14.01,2013-11-24 12:17:00,
2013-11-24 07:23:00,17.8,11.5,30.49,WSW,252,0.0,4.0,76,0.00,,---,0.00,VWS V14.01,2013-11-24 12:23:00,
2013-11-24 07:28:00,17.9,11.6,30.50,WSW,246,1.0,5.0,76,0.00,,---,0.00,VWS V14.01,2013-11-24 12:28:00,
2013-11-24 07:33:00,17.9,11.6,30.50,West,277,0.0,5.0,76,0.00,,---,0.00,VWS V14.01,2013-11-24 12:33:00,
2013-11-24 07:37:00,18.0,11.7,30.49,West,275,3.0,3.0,76,0.00,,---,0.00,VWS V14.01,2013-11-24 12:37:00,
2013-11-24 07:42:00,18.0,11.7,30.50,SW,234,0.0,5.0,76,0.00,,---,0.00,VWS V14.01,2013-11-24 12:42:00,
2013-11-24 07:47:00,18.1,11.8,30.50,SW,214,4.0,5.0,76,0.00,,---,0.00,VWS V14.01,2013-11-24 12:47:00,
2013-11-24 07:52:00,18.2,11.6,30.50,WNW,296,0.0,6.0,75,0.00,,---,0.00,VWS V14.01,2013-11-24 12:52:00,
2013-11-24 07:57:00,18.2,11.6,30.50,WSW,237,0.0,10.0,75,0.00,,---,0.00,VWS V14.01,2013-11-24 12:57:00,
2013-11-24 08:02:00,18.3,12.0,30.51,WSW,257,2.0,7.0,76,0.00,,---,0.00,VWS V14.01,2013-11-24 13:02:00,
2013-11-24 08:07:00,18.3,12.0,30.51,West,267,3.0,12.0,76,0.00,,---,0.00,VWS V14.01,2013-11-24 13:07:00,
2013-11-24 08:12:00,18.4,12.4,30.51,SW,232,3.0,4.0,77,0.00,,---,0.00,VWS V14.01,2013-11-24 13:12:00,
2013-11-24 08:18:00,18.3,12.3,30.51,WNW,301,0.0,4.0,77,0.00,,---,0.00,VWS V14.01,2013-11-24 13:18:00,
2013-11-24 08:23:00,18.3,12.3,30.51,West,281,3.0,9.0,77,0.00,,---,0.00,VWS V14.01,2013-11-24 13:23:00,
2013-11-24 08:28:00,18.4,12.7,30.51,WSW,240,0.0,4.0,78,0.00,,---,0.00,VWS V14.01,2013-11-24 13:28:00,
2013-11-24 08:33:00,18.5,12.8,30.52,WSW,256,2.0,4.0,78,0.00,,---,0.00,VWS V14.01,2013-11-24 13:33:00,
2013-11-24 08:38:00,18.6,12.9,30.52,SSW,210,0.0,2.0,78,0.00,,---,0.00,VWS V14.01,2013-11-24 13:38:00,
2013-11-24 08:43:00,18.8,13.1,30.52,West,271,0.0,3.0,78,0.00,,---,0.00,VWS V14.01,2013-11-24 13:43:00,
2013-11-24 08:48:00,19.0,13.6,30.52,WSW,241,2.0,6.0,79,0.00,,---,0.00,VWS V14.01,2013-11-24 13:48:00,
2013-11-24 08:53:00,19.1,13.7,30.53,SW,230,7.0,7.0,79,0.00,,---,0.00,VWS V14.01,2013-11-24 13:53:00,
2013-11-24 08:58:00,19.3,13.9,30.53,West,271,0.0,4.0,79,0.00,,---,0.00,VWS V14.01,2013-11-24 13:58:00,
2013-11-24 09:03:00,19.5,14.1,30.53,West,259,0.0,7.0,79,0.00,,---,0.00,VWS V14.01,2013-11-24 14:03:00,
2013-11-24 09:08:00,19.8,14.6,30.53,West,269,3.0,4.0,80,0.00,,---,0.00,VWS V14.01,2013-11-24 14:08:00,
2013-11-24 09:13:00,20.0,14.8,30.54,West,271,4.0,5.0,80,0.00,,---,0.00,VWS V14.01,2013-11-24 14:13:00,
2013-11-24 09:18:00,20.2,14.7,30.54,NW,309,4.0,7.0,79,0.00,,---,0.00,VWS V14.01,2013-11-24 14:18:00,
2013-11-24 09:23:00,20.4,14.9,30.54,West,264,1.0,6.0,79,0.00,,---,0.00,VWS V14.01,2013-11-24 14:23:00,
2013-11-24 09:28:00,20.7,15.2,30.54,West,267,0.0,6.0,79,0.00,,---,0.00,VWS V14.01,2013-11-24 14:28:00,
2013-11-24 09:33:00,21.0,15.5,30.54,SW,217,1.0,10.0,79,0.00,,---,0.00,VWS V14.01,2013-11-24 14:33:00,
2013-11-24 09:38:00,21.3,15.5,30.54,West,261,10.0,10.0,78,0.00,,---,0.00,VWS V14.01,2013-11-24 14:38:00,
2013-11-24 09:43:00,21.5,15.7,30.54,WSW,252,0.0,10.0,78,0.00,,---,0.00,VWS V14.01,2013-11-24 14:43:00,
2013-11-24 09:48:00,21.6,15.8,30.54,SW,217,3.0,7.0,78,0.00,,---,0.00,VWS V14.01,2013-11-24 14:48:00,
2013-11-24 09:53:00,21.8,15.7,30.55,WSW,244,4.0,7.0,77,0.00,,---,0.00,VWS V14.01,2013-11-24 14:53:00,
2013-11-24 09:58:00,21.9,15.5,30.54,West,267,2.0,10.0,76,0.00,,---,0.00,VWS V14.01,2013-11-24 14:58:00,
2013-11-24 10:03:00,22.0,15.6,30.54,West,281,0.0,7.0,76,0.00,,---,0.00,VWS V14.01,2013-11-24 15:03:00,
2013-11-24 10:08:00,22.2,15.5,30.55,SW,236,7.0,8.0,75,0.00,,---,0.00,VWS V14.01,2013-11-24 15:08:00,
2013-11-24 10:13:00,22.2,15.2,30.54,WNW,303,4.0,9.0,74,0.00,,---,0.00,VWS V14.01,2013-11-24 15:13:00,
2013-11-24 10:18:00,22.5,15.8,30.55,West,274,4.0,14.0,75,0.00,,---,0.00,VWS V14.01,2013-11-24 15:18:00,
2013-11-24 10:23:00,22.6,15.6,30.55,WSW,243,5.0,13.0,74,0.00,,---,0.00,VWS V14.01,2013-11-24 15:23:00,
2013-11-24 10:28:00,22.8,15.5,30.55,West,262,6.0,7.0,73,0.00,,---,0.00,VWS V14.01,2013-11-24 15:28:00,
2013-11-24 10:33:00,22.9,15.2,30.55,SSW,196,3.0,10.0,72,0.00,,---,0.00,VWS V14.01,2013-11-24 15:33:00,
2013-11-24 10:38:00,23.2,15.5,30.55,SSW,212,0.0,9.0,72,0.00,,---,0.00,VWS V14.01,2013-11-24 15:38:00,
2013-11-24 10:43:00,23.5,15.8,30.56,SSE,168,9.0,11.0,72,0.00,,---,0.00,VWS V14.01,2013-11-24 15:43:00,
2013-11-24 10:48:00,23.5,15.5,30.55,West,279,4.0,9.0,71,0.00,,---,0.00,VWS V14.01,2013-11-24 15:48:00,
2013-11-24 10:53:00,23.6,15.3,30.56,WNW,288,2.0,9.0,70,0.00,,---,0.00,VWS V14.01,2013-11-24 15:53:00,
2013-11-24 10:58:00,23.5,14.5,30.56,WNW,299,4.0,14.0,68,0.00,,---,0.00,VWS V14.01,2013-11-24 15:58:00,
2013-11-24 11:03:00,23.1,14.1,30.55,West,280,3.0,10.0,68,0.00,,---,0.00,VWS V14.01,2013-11-24 16:03:00,
2013-11-24 11:08:00,23.1,14.1,30.55,SW,229,3.0,5.0,68,0.00,,---,0.00,VWS V14.01,2013-11-24 16:08:00,
2013-11-24 11:13:00,23.3,14.3,30.55,WNW,294,3.0,9.0,68,0.00,,---,0.00,VWS V14.01,2013-11-24 16:13:00,
2013-11-24 11:18:00,23.6,14.3,30.55,SW,221,12.0,17.0,67,0.00,,---,0.00,VWS V14.01,2013-11-24 16:18:00,
2013-11-24 11:23:00,23.7,14.0,30.54,SSE,149,5.0,11.0,66,0.00,,---,0.00,VWS V14.01,2013-11-24 16:23:00,
2013-11-24 11:28:00,24.0,14.3,30.54,West,273,4.0,12.0,66,0.00,,---,0.00,VWS V14.01,2013-11-24 16:28:00,
2013-11-24 11:33:00,24.3,14.2,30.54,South,191,0.0,12.0,65,0.00,,---,0.00,VWS V14.01,2013-11-24 16:33:00,
2013-11-24 11:38:00,24.6,14.5,30.53,SW,222,2.0,12.0,65,0.00,,---,0.00,VWS V14.01,2013-11-24 16:38:00,
2013-11-24 11:43:00,25.1,15.0,30.54,SSE,163,8.0,12.0,65,0.00,,---,0.00,VWS V14.01,2013-11-24 16:43:00,
2013-11-24 11:48:00,25.4,15.3,30.54,South,176,4.0,10.0,65,0.00,,---,0.00,VWS V14.01,2013-11-24 16:48:00,
2013-11-24 11:53:00,25.5,14.7,30.54,WNW,286,0.0,11.0,63,0.00,,---,0.00,VWS V14.01,2013-11-24 16:53:00,
2013-11-24 11:58:00,25.5,14.3,30.54,WSW,240,6.0,14.0,62,0.00,,---,0.00,VWS V14.01,2013-11-24 16:58:00,
2013-11-24 12:03:00,25.4,14.6,30.54,WNW,289,4.0,16.0,63,0.00,,---,0.00,VWS V14.01,2013-11-24 17:03:00,
2013-11-24 12:08:00,25.4,13.8,30.53,West,277,8.0,12.0,61,0.00,,---,0.00,VWS V14.01,2013-11-24 17:08:00,
2013-11-24 12:13:00,25.2,14.0,30.53,West,268,0.0,10.0,62,0.00,,---,0.00,VWS V14.01,2013-11-24 17:13:00,
2013-11-24 12:18:00,25.3,14.1,30.53,SSW,209,1.0,12.0,62,0.00,,---,0.00,VWS V14.01,2013-11-24 17:18:00,
2013-11-24 12:23:00,25.6,14.8,30.53,West,260,1.0,12.0,63,0.00,,---,0.00,VWS V14.01,2013-11-24 17:23:00,
2013-11-24 12:28:00,26.0,15.1,30.53,West,278,4.0,6.0,63,0.00,,---,0.00,VWS V14.01,2013-11-24 17:28:00,
2013-11-24 12:33:00,26.0,14.8,30.53,SSW,210,3.0,7.0,62,0.00,,---,0.00,VWS V14.01,2013-11-24 17:33:00,
2013-11-24 12:38:00,25.8,13.9,30.53,WSW,248,2.0,10.0,60,0.00,,---,0.00,VWS V14.01,2013-11-24 17:38:00,
2013-11-24 12:43:00,25.7,14.5,30.53,SW,224,4.0,9.0,62,0.00,,---,0.00,VWS V14.01,2013-11-24 17:43:00,
2013-11-24 12:48:00,26.0,14.8,30.53,WNW,295,3.0,6.0,62,0.00,,---,0.00,VWS V14.01,2013-11-24 17:48:00,
2013-11-24 12:53:00,26.2,14.6,30.53,West,281,10.0,10.0,61,0.00,,---,0.00,VWS V14.01,2013-11-24 17:53:00,
2013-11-24 12:58:00,26.0,14.0,30.53,SW,219,2.0,9.0,60,0.00,,---,0.00,VWS V14.01,2013-11-24 17:58:00,
2013-11-24 13:03:00,25.9,14.7,30.53,WNW,284,0.0,11.0,62,0.00,,---,0.00,VWS V14.01,2013-11-24 18:03:00,
2013-11-24 13:08:00,25.9,14.3,30.53,West,276,5.0,7.0,61,0.00,,---,0.00,VWS V14.01,2013-11-24 18:08:00,
2013-11-24 13:13:00,26.0,14.8,30.53,West,280,6.0,11.0,62,0.00,,---,0.00,VWS V14.01,2013-11-24 18:13:00,
2013-11-24 13:18:00,26.3,15.1,30.53,West,265,0.0,12.0,62,0.00,,---,0.00,VWS V14.01,2013-11-24 18:18:00,
2013-11-24 13:23:00,26.4,14.4,30.53,SW,216,1.0,7.0,60,0.00,,---,0.00,VWS V14.01,2013-11-24 18:23:00,
2013-11-24 13:28:00,26.3,13.9,30.52,South,186,0.0,11.0,59,0.00,,---,0.00,VWS V14.01,2013-11-24 18:28:00,
2013-11-24 13:33:00,26.4,14.4,30.53,West,277,3.0,11.0,60,0.00,,---,0.00,VWS V14.01,2013-11-24 18:33:00,
2013-11-24 13:38:00,26.6,14.6,30.52,West,264,6.0,6.0,60,0.00,,---,0.00,VWS V14.01,2013-11-24 18:38:00,
2013-11-24 13:43:00,26.7,14.3,30.52,West,272,0.0,6.0,59,0.00,,---,0.00,VWS V14.01,2013-11-24 18:43:00,
2013-11-24 13:48:00,26.7,14.3,30.52,WSW,253,4.0,5.0,59,0.00,,---,0.00,VWS V14.01,2013-11-24 18:48:00,
2013-11-24 13:53:00,26.4,14.4,30.52,WNW,283,0.0,9.0,60,0.00,,---,0.00,VWS V14.01,2013-11-24 18:53:00,
2013-11-24 13:58:00,26.0,14.0,30.52,WNW,284,0.0,9.0,60,0.00,,---,0.00,VWS V14.01,2013-11-24 18:58:00,
2013-11-24 14:03:00,25.4,14.6,30.53,SW,223,0.0,12.0,63,0.00,,---,0.00,VWS V14.01,2013-11-24 19:03:00,
2013-11-24 14:08:00,25.0,15.3,30.53,NW,304,4.0,6.0,66,0.00,,---,0.00,VWS V14.01,2013-11-24 19:08:00,
2013-11-24 14:13:00,24.7,15.3,30.52,WSW,248,0.0,7.0,67,0.00,,---,0.00,VWS V14.01,2013-11-24 19:13:00,
2013-11-24 14:18:00,24.4,15.4,30.52,SW,236,1.0,10.0,68,0.00,,---,0.00,VWS V14.01,2013-11-24 19:18:00,
2013-11-24 14:23:00,24.5,15.5,30.52,SSW,195,3.0,15.0,68,0.00,,---,0.00,VWS V14.01,2013-11-24 19:23:00,
2013-11-24 14:28:00,24.8,15.4,30.52,WNW,296,0.0,13.0,67,0.00,,---,0.00,VWS V14.01,2013-11-24 19:28:00,
2013-11-24 14:33:00,25.1,15.4,30.52,West,262,0.0,8.0,66,0.00,,---,0.00,VWS V14.01,2013-11-24 19:33:00,
2013-11-24 14:38:00,25.1,14.6,30.53,West,260,6.0,12.0,64,0.00,,---,0.00,VWS V14.01,2013-11-24 19:38:00,
2013-11-24 14:43:00,25.0,14.6,30.52,WNW,292,0.0,10.0,64,0.00,,---,0.00,VWS V14.01,2013-11-24 19:43:00,
2013-11-24 14:48:00,25.0,14.6,30.53,SW,235,3.0,12.0,64,0.00,,---,0.00,VWS V14.01,2013-11-24 19:48:00,
2013-11-24 14:53:00,24.9,14.5,30.52,WNW,292,0.0,10.0,64,0.00,,---,0.00,VWS V14.01,2013-11-24 19:53:00,
2013-11-24 14:58:00,24.9,15.2,30.53,SSE,164,2.0,10.0,66,0.00,,---,0.00,VWS V14.01,2013-11-24 19:58:00,
2013-11-24 15:03:00,25.1,15.4,30.53,SSW,199,2.0,7.0,66,0.00,,---,0.00,VWS V14.01,2013-11-24 20:03:00,
2013-11-24 15:08:00,25.2,15.8,30.53,WNW,301,4.0,8.0,67,0.00,,---,0.00,VWS V14.01,2013-11-24 20:08:00,
2013-11-24 15:13:00,25.3,15.6,30.53,WNW,293,3.0,5.0,66,0.00,,---,0.00,VWS V14.01,2013-11-24 20:13:00,
2013-11-24 15:18:00,25.2,15.4,30.53,WSW,252,2.0,4.0,66,0.00,,---,0.00,VWS V14.01,2013-11-24 20:18:00,
2013-11-24 15:23:00,25.0,15.3,30.53,WNW,291,0.0,6.0,66,0.00,,---,0.00,VWS V14.01,2013-11-24 20:23:00,
2013-11-24 15:28:00,24.9,15.9,30.53,West,259,2.0,3.0,68,0.00,,---,0.00,VWS V14.01,2013-11-24 20:28:00,
2013-11-24 15:33:00,24.7,15.7,30.54,West,261,2.0,7.0,68,0.00,,---,0.00,VWS V14.01,2013-11-24 20:33:00,
2013-11-24 15:38:00,24.4,14.7,30.54,SW,219,3.0,6.0,66,0.00,,---,0.00,VWS V14.01,2013-11-24 20:38:00,
2013-11-24 15:43:00,24.2,14.1,30.55,WSW,251,4.0,5.0,65,0.00,,---,0.00,VWS V14.01,2013-11-24 20:43:00,
2013-11-24 15:48:00,23.9,14.6,30.55,WNW,291,1.0,10.0,67,0.00,,---,0.00,VWS V14.01,2013-11-24 20:48:00,
2013-11-24 15:53:00,23.7,15.0,30.55,WNW,302,0.0,5.0,69,0.00,,---,0.00,VWS V14.01,2013-11-24 20:53:00,
2013-11-24 15:58:00,23.4,15.1,30.56,WSW,240,0.0,7.0,70,0.00,,---,0.00,VWS V14.01,2013-11-24 20:58:00,
2013-11-24 16:03:00,23.0,15.0,30.56,WNW,291,5.0,9.0,71,0.00,,---,0.00,VWS V14.01,2013-11-24 21:03:00,
2013-11-24 16:08:00,22.7,14.7,30.56,WSW,238,2.0,4.0,71,0.00,,---,0.00,VWS V14.01,2013-11-24 21:08:00,
2013-11-24 16:13:00,22.5,14.9,30.56,WNW,302,0.0,5.0,72,0.00,,---,0.00,VWS V14.01,2013-11-24 21:13:00,
2013-11-24 16:18:00,22.4,14.8,30.56,West,272,1.0,5.0,72,0.00,,---,0.00,VWS V14.01,2013-11-24 21:18:00,
2013-11-24 16:23:00,22.2,14.6,30.56,WNW,282,0.0,5.0,72,0.00,,---,0.00,VWS V14.01,2013-11-24 21:23:00,
2013-11-24 16:28:00,22.1,14.1,30.56,SW,216,1.0,3.0,71,0.00,,---,0.00,VWS V14.01,2013-11-24 21:28:00,
2013-11-24 16:33:00,22.1,13.8,30.57,West,260,0.0,9.0,70,0.00,,---,0.00,VWS V14.01,2013-11-24 21:33:00,
2013-11-24 16:38:00,22.0,13.4,30.56,West,268,0.0,6.0,69,0.00,,---,0.00,VWS V14.01,2013-11-24 21:38:00,
2013-11-24 16:43:00,21.9,13.3,30.56,West,270,1.0,3.0,69,0.00,,---,0.00,VWS V14.01,2013-11-24 21:43:00,
2013-11-24 16:48:00,21.8,12.9,30.56,West,259,0.0,8.0,68,0.00,,---,0.00,VWS V14.01,2013-11-24 21:48:00,
2013-11-24 16:53:00,21.7,12.8,30.56,West,270,0.0,3.0,68,0.00,,---,0.00,VWS V14.01,2013-11-24 21:53:00,
2013-11-24 16:58:00,21.6,12.4,30.56,WNW,303,0.0,6.0,67,0.00,,---,0.00,VWS V14.01,2013-11-24 21:58:00,
2013-11-24 17:03:00,21.5,12.3,30.56,West,279,0.0,2.0,67,0.00,,---,0.00,VWS V14.01,2013-11-24 22:03:00,
2013-11-24 17:08:00,21.4,12.5,30.56,West,274,0.0,3.0,68,0.00,,---,0.00,VWS V14.01,2013-11-24 22:08:00,
2013-11-24 17:13:00,21.2,12.3,30.56,SW,219,0.0,3.0,68,0.00,,---,0.00,VWS V14.01,2013-11-24 22:13:00,
2013-11-24 17:18:00,21.1,12.2,30.56,SW,221,0.0,1.0,68,0.00,,---,0.00,VWS V14.01,2013-11-24 22:18:00,
2013-11-24 17:23:00,21.0,12.4,30.56,SW,221,0.0,3.0,69,0.00,,---,0.00,VWS V14.01,2013-11-24 22:23:00,
2013-11-24 17:28:00,20.9,12.4,30.57,SW,221,0.0,1.0,69,0.00,,---,0.00,VWS V14.01,2013-11-24 22:28:00,
2013-11-24 17:33:00,20.8,12.2,30.57,West,278,0.0,3.0,69,0.00,,---,0.00,VWS V14.01,2013-11-24 22:33:00,
2013-11-24 17:38:00,20.8,12.6,30.57,West,278,0.0,0.0,70,0.00,,---,0.00,VWS V14.01,2013-11-24 22:38:00,
2013-11-24 17:43:00,20.7,12.5,30.57,West,278,0.0,1.0,70,0.00,,---,0.00,VWS V14.01,2013-11-24 22:43:00,
2013-11-24 17:48:00,20.7,12.5,30.57,West,278,0.0,1.0,70,0.00,,---,0.00,VWS V14.01,2013-11-24 22:48:00,
2013-11-24 17:53:00,20.6,12.4,30.58,West,278,0.0,1.0,70,0.00,,---,0.00,VWS V14.01,2013-11-24 22:53:00,
2013-11-24 17:58:00,20.6,12.7,30.58,NW,312,0.0,1.0,71,0.00,,---,0.00,VWS V14.01,2013-11-24 22:58:00,
2013-11-24 18:03:00,20.5,12.9,30.58,NW,309,1.0,2.0,72,0.00,,---,0.00,VWS V14.01,2013-11-24 23:03:00,
2013-11-24 18:08:00,20.4,12.8,30.58,NW,309,0.0,0.0,72,0.00,,---,0.00,VWS V14.01,2013-11-24 23:08:00,
2013-11-24 18:13:00,20.3,12.7,30.58,NW,309,0.0,2.0,72,0.00,,---,0.00,VWS V14.01,2013-11-24 23:13:00,
2013-11-24 18:18:00,20.3,12.7,30.58,NW,309,0.0,0.0,72,0.00,,---,0.00,VWS V14.01,2013-11-24 23:18:00,
2013-11-24 18:23:00,20.2,12.6,30.58,NW,309,0.0,0.0,72,0.00,,---,0.00,VWS V14.01,2013-11-24 23:23:00,
2013-11-24 18:28:00,20.1,12.5,30.58,NW,309,0.0,2.0,72,0.00,,---,0.00,VWS V14.01,2013-11-24 23:28:00,
2013-11-24 18:33:00,20.0,12.8,30.59,NW,308,0.0,2.0,73,0.00,,---,0.00,VWS V14.01,2013-11-24 23:33:00,
2013-11-24 18:38:00,19.9,12.7,30.59,NW,308,0.0,0.0,73,0.00,,---,0.00,VWS V14.01,2013-11-24 23:38:00,
2013-11-24 18:43:00,19.9,12.7,30.59,NW,308,0.0,1.0,73,0.00,,---,0.00,VWS V14.01,2013-11-24 23:43:00,
2013-11-24 18:48:00,19.8,12.6,30.59,NW,308,0.0,2.0,73,0.00,,---,0.00,VWS V14.01,2013-11-24 23:48:00,
2013-11-24 18:53:00,19.7,12.5,30.59,NW,308,0.0,0.0,73,0.00,,---,0.00,VWS V14.01,2013-11-24 23:53:00,
2013-11-24 18:58:00,19.6,12.4,30.59,SW,217,0.0,3.0,73,0.00,,---,0.00,VWS V14.01,2013-11-24 23:58:00,
2013-11-24 19:03:00,19.5,12.3,30.59,SW,217,0.0,0.0,73,0.00,,---,0.00,VWS V14.01,2013-11-25 00:03:00,
2013-11-24 19:08:00,19.4,12.5,30.59,SSW,196,0.0,3.0,74,0.00,,---,0.00,VWS V14.01,2013-11-25 00:08:00,
2013-11-24 19:13:00,19.4,12.5,30.58,West,275,0.0,6.0,74,0.00,,---,0.00,VWS V14.01,2013-11-25 00:13:00,
2013-11-24 19:18:00,19.3,12.1,30.58,South,175,0.0,1.0,73,0.00,,---,0.00,VWS V14.01,2013-11-25 00:18:00,
2013-11-24 19:23:00,19.2,12.0,30.58,West,269,0.0,3.0,73,0.00,,---,0.00,VWS V14.01,2013-11-25 00:23:00,
2013-11-24 19:28:00,19.1,11.9,30.58,West,269,0.0,1.0,73,0.00,,---,0.00,VWS V14.01,2013-11-25 00:28:00,
2013-11-24 19:33:00,19.1,11.9,30.58,West,269,0.0,0.0,73,0.00,,---,0.00,VWS V14.01,2013-11-25 00:33:00,
2013-11-24 19:38:00,19.0,11.5,30.58,West,269,0.0,0.0,72,0.00,,---,0.00,VWS V14.01,2013-11-25 00:38:00,
2013-11-24 19:43:00,19.0,11.5,30.58,West,269,0.0,0.0,72,0.00,,---,0.00,VWS V14.01,2013-11-25 00:43:00,
2013-11-24 19:48:00,18.9,11.4,30.57,West,269,0.0,0.0,72,0.00,,---,0.00,VWS V14.01,2013-11-25 00:48:00,
2013-11-24 19:53:00,18.9,11.4,30.57,West,269,0.0,0.0,72,0.00,,---,0.00,VWS V14.01,2013-11-25 00:53:00,
2013-11-24 19:58:00,18.8,11.3,30.57,West,269,0.0,0.0,72,0.00,,---,0.00,VWS V14.01,2013-11-25 00:58:00,
2013-11-24 20:03:00,18.6,11.1,30.57,West,269,0.0,0.0,72,0.00,,---,0.00,VWS V14.01,2013-11-25 01:03:00,
2013-11-24 20:08:00,18.5,11.0,30.57,West,269,0.0,0.0,72,0.00,,---,0.00,VWS V14.01,2013-11-25 01:08:00,
2013-11-24 20:13:00,18.4,10.9,30.57,West,269,0.0,0.0,72,0.00,,---,0.00,VWS V14.01,2013-11-25 01:13:00,
2013-11-24 20:18:00,18.2,10.7,30.57,West,269,0.0,0.0,72,0.00,,---,0.00,VWS V14.01,2013-11-25 01:18:00,
2013-11-24 20:23:00,18.1,10.6,30.57,West,269,0.0,0.0,72,0.00,,---,0.00,VWS V14.01,2013-11-25 01:23:00,
2013-11-24 20:28:00,17.9,10.4,30.57,West,269,0.0,0.0,72,0.00,,---,0.00,VWS V14.01,2013-11-25 01:28:00,
2013-11-24 20:33:00,17.7,10.2,30.57,West,269,0.0,0.0,72,0.00,,---,0.00,VWS V14.01,2013-11-25 01:33:00,
2013-11-24 20:38:00,17.5,10.3,30.57,West,269,0.0,0.0,73,0.00,,---,0.00,VWS V14.01,2013-11-25 01:38:00,
2013-11-24 20:43:00,17.3,10.1,30.57,West,269,0.0,0.0,73,0.00,,---,0.00,VWS V14.01,2013-11-25 01:43:00,
2013-11-24 20:48:00,17.1,9.9,30.57,West,269,0.0,0.0,73,0.00,,---,0.00,VWS V14.01,2013-11-25 01:48:00,
2013-11-24 20:53:00,16.9,9.8,30.57,West,269,0.0,0.0,73,0.00,,---,0.00,VWS V14.01,2013-11-25 01:53:00,
2013-11-24 20:58:00,16.7,9.9,30.57,West,269,0.0,0.0,74,0.00,,---,0.00,VWS V14.01,2013-11-25 01:58:00,
2013-11-24 21:03:00,16.5,9.7,30.57,West,269,0.0,0.0,74,0.00,,---,0.00,VWS V14.01,2013-11-25 02:03:00,
2013-11-24 21:08:00,16.3,9.5,30.56,West,269,0.0,0.0,74,0.00,,---,0.00,VWS V14.01,2013-11-25 02:08:00,
2013-11-24 21:13:00,16.2,9.7,30.56,West,269,0.0,0.0,75,0.00,,---,0.00,VWS V14.01,2013-11-25 02:13:00,
2013-11-24 21:18:00,16.0,9.5,30.56,West,269,0.0,0.0,75,0.00,,---,0.00,VWS V14.01,2013-11-25 02:18:00,
2013-11-24 21:23:00,15.8,9.3,30.56,West,269,0.0,0.0,75,0.00,,---,0.00,VWS V14.01,2013-11-25 02:23:00,
2013-11-24 21:28:00,15.7,9.5,30.56,West,269,0.0,0.0,76,0.00,,---,0.00,VWS V14.01,2013-11-25 02:28:00,
2013-11-24 21:33:00,15.5,9.3,30.56,West,269,0.0,0.0,76,0.00,,---,0.00,VWS V14.01,2013-11-25 02:33:00,
2013-11-24 21:38:00,15.3,9.1,30.56,West,269,0.0,0.0,76,0.00,,---,0.00,VWS V14.01,2013-11-25 02:38:00,
2013-11-24 21:43:00,15.2,9.0,30.56,West,269,0.0,0.0,76,0.00,,---,0.00,VWS V14.01,2013-11-25 02:43:00,
2013-11-24 21:48:00,15.0,8.8,30.56,West,269,0.0,0.0,76,0.00,,---,0.00,VWS V14.01,2013-11-25 02:48:00,
2013-11-24 21:53:00,14.9,9.0,30.56,West,269,0.0,0.0,77,0.00,,---,0.00,VWS V14.01,2013-11-25 02:53:00,
2013-11-24 21:58:00,14.8,8.9,30.56,West,269,0.0,0.0,77,0.00,,---,0.00,VWS V14.01,2013-11-25 02:58:00,
2013-11-24 22:03:00,14.6,9.0,30.56,West,269,0.0,0.0,78,0.00,,---,0.00,VWS V14.01,2013-11-25 03:03:00,
2013-11-24 22:08:00,14.5,8.9,30.56,West,269,0.0,0.0,78,0.00,,---,0.00,VWS V14.01,2013-11-25 03:08:00,
2013-11-24 22:13:00,14.4,8.8,30.55,West,269,0.0,0.0,78,0.00,,---,0.00,VWS V14.01,2013-11-25 03:13:00,
2013-11-24 22:18:00,14.2,8.6,30.56,West,269,0.0,0.0,78,0.00,,---,0.00,VWS V14.01,2013-11-25 03:18:00,
2013-11-24 22:23:00,14.1,8.8,30.55,West,269,0.0,0.0,79,0.00,,---,0.00,VWS V14.01,2013-11-25 03:23:00,
2013-11-24 22:28:00,13.9,8.6,30.55,West,269,0.0,0.0,79,0.00,,---,0.00,VWS V14.01,2013-11-25 03:28:00,
2013-11-24 22:33:00,13.8,8.5,30.55,West,269,0.0,0.0,79,0.00,,---,0.00,VWS V14.01,2013-11-25 03:33:00,
2013-11-24 22:38:00,13.7,8.7,30.55,West,269,0.0,0.0,80,0.00,,---,0.00,VWS V14.01,2013-11-25 03:38:00,
2013-11-24 22:43:00,13.6,8.6,30.55,West,269,0.0,0.0,80,0.00,,---,0.00,VWS V14.01,2013-11-25 03:43:00,
2013-11-24 22:48:00,13.5,8.5,30.55,West,269,0.0,0.0,80,0.00,,---,0.00,VWS V14.01,2013-11-25 03:48:00,
2013-11-24 22:53:00,13.4,8.4,30.54,West,269,0.0,0.0,80,0.00,,---,0.00,VWS V14.01,2013-11-25 03:53:00,
2013-11-24 22:58:00,13.3,8.3,30.54,West,269,0.0,0.0,80,0.00,,---,0.00,VWS V14.01,2013-11-25 03:58:00,
2013-11-24 23:03:00,13.2,8.5,30.54,West,269,0.0,0.0,81,0.00,,---,0.00,VWS V14.01,2013-11-25 04:03:00,
2013-11-24 23:08:00,13.1,8.4,30.55,West,269,0.0,0.0,81,0.00,,---,0.00,VWS V14.01,2013-11-25 04:08:00,
2013-11-24 23:13:00,13.0,8.3,30.55,West,269,0.0,0.0,81,0.00,,---,0.00,VWS V14.01,2013-11-25 04:13:00,
2013-11-24 23:18:00,12.9,8.2,30.55,West,269,0.0,0.0,81,0.00,,---,0.00,VWS V14.01,2013-11-25 04:18:00,
2013-11-24 23:23:00,12.8,8.4,30.55,West,269,0.0,0.0,82,0.00,,---,0.00,VWS V14.01,2013-11-25 04:23:00,
2013-11-24 23:28:00,12.8,8.4,30.55,West,269,0.0,0.0,82,0.00,,---,0.00,VWS V14.01,2013-11-25 04:28:00,
2013-11-24 23:33:00,12.7,8.3,30.55,West,269,0.0,0.0,82,0.00,,---,0.00,VWS V14.01,2013-11-25 04:33:00,
2013-11-24 23:38:00,12.6,8.2,30.55,West,269,0.0,0.0,82,0.00,,---,0.00,VWS V14.01,2013-11-25 04:38:00,
2013-11-24 23:43:00,12.6,8.4,30.55,West,269,0.0,0.0,83,0.00,,---,0.00,VWS V14.01,2013-11-25 04:43:00,
2013-11-24 23:48:00,12.5,8.3,30.55,West,269,0.0,0.0,83,0.00,,---,0.00,VWS V14.01,2013-11-25 04:48:00,
2013-11-24 23:53:00,12.4,8.2,30.55,West,269,0.0,0.0,83,0.00,,---,0.00,VWS V14.01,2013-11-25 04:53:00,
2013-11-24 23:58:00,12.3,8.1,30.55,West,269,0.0,0.0,83,0.00,,---,0.00,VWS V14.01,2013-11-25 04:58:00,